Evansville, IN

9:25 PM CST on December 02, 2016 (GMT -0600)
Evansville Regional

Weather History for KEVV - August, 2012

Change the Weather History Date:

Wednesday, August 15, 2012

  Actual Average Record
Temperature  
Mean Temperature 75 °F 77 °F  
Max Temperature 89 °F 88 °F 104 °F (2007)
Min Temperature 60 °F 66 °F 50 °F (2004)
Degree Days  
Heating Degree Days 0 0  
Month to date heating degree days 0 0  
Since 1 June heating degree days 9 6  
Since 1 July heating degree days 0 0  
Cooling Degree Days 10 12  
Month to date cooling degree days 196 183  
Year to date cooling degree days 1492 1019  
Since 1 June cooling degree days 1157 884  
Growing Degree Days 24 (Base 50)    
Moisture  
Dew Point 59 °F    
Average Humidity 66    
Maximum Humidity 97    
Minimum Humidity 35    
Precipitation  
Precipitation 0.00 in 0.10 in 2.19 in (1946)
Month to date precipitation 3.17 1.44  
Year to date precipitation 17.04 29.38  
Snow  
Snow 0.00 in 0.00 in 0.00 in (2002)
Month to date snowfall 0.0 0.0  
Since 1 June snowfall 0.0 0.0  
Since 1 July snowfall 0.0 0.0  
Snow Depth 0.00 in    
Sea Level Pressure  
Sea Level Pressure 29.98 in    
Wind  
Wind Speed 2 mph (East)    
Max Wind Speed 8 mph    
Max Gust Speed 14 mph    
Visibility 8 miles    
Events      
T = Trace of Precipitation, MM = Missing Value Source: NWS Daily Summary

Daily Weather History Graph

Daily Weather History Graph

Search for Another Location

Airport or City:

Trip Planner

Search our weather history database for the weather conditions in past years. The results will help you decide how hot, cold, wet, or windy it might be!

Date:

Astronomy

Aug. 15, 2012 Rise Set
Actual Time 6:05 AM CDT 7:42 PM CDT
Civil Twilight 5:37 AM CDT 8:10 PM CDT
Nautical Twilight 5:03 AM CDT 8:44 PM CDT
Astronomical Twilight 4:27 AM CDT 9:20 PM CDT
Moon 4:02 AM CDT (8/15) 6:15 PM CDT (8/15)
Length of Visible Light 14h 33m
Length of Day
13h 37m
Waning Crescent, 4% of the Moon is Illuminated
Aug 15
Waning Crescent
Aug 17
New
Aug 24
First Quarter
Aug 31
Full
Sep 8
Last Quarter

Hourly Weather History & Observations

Time (CDT) Temp. Heat Index Dew Point Humidity Pressure Visibility Wind Dir Wind Speed Gust Speed Precip Events Conditions
12:54 AM 66.9 °F - 61.0 °F 81% 29.96 in 10.0 mi Calm Calm - N/A   Clear
1:54 AM 63.0 °F - 60.1 °F 90% 29.95 in 10.0 mi Calm Calm - N/A   Clear
2:54 AM 63.0 °F - 60.1 °F 90% 29.95 in 7.0 mi Calm Calm - N/A   Clear
3:42 AM 62.6 °F - 60.8 °F 94% 29.95 in 1.5 mi Calm Calm - N/A   Clear
3:45 AM 60.8 °F - 60.8 °F 100% 29.95 in 0.8 mi Calm Calm - N/A   Clear
3:54 AM 61.0 °F - 59.0 °F 93% 29.95 in 1.2 mi Calm Calm - N/A   Clear
3:56 AM 60.8 °F - 59.0 °F 94% 29.95 in 3.0 mi Calm Calm - N/A   Clear
4:54 AM 61.0 °F - 59.0 °F 93% 29.97 in 6.0 mi WSW 3.5 mph - N/A   Clear
5:54 AM 61.0 °F - 57.9 °F 90% 29.98 in 8.0 mi Calm Calm - N/A   Clear
6:54 AM 63.0 °F - 60.1 °F 90% 30.01 in 8.0 mi Calm Calm - N/A   Clear
7:54 AM 68.0 °F - 62.1 °F 81% 30.02 in 10.0 mi Calm Calm - N/A   Clear
8:54 AM 75.0 °F - 62.1 °F 64% 30.02 in 10.0 mi NW 4.6 mph - N/A   Clear
9:54 AM 79.0 °F - 61.0 °F 54% 30.02 in 10.0 mi Calm Calm - N/A   Clear
10:54 AM 81.0 °F 81.7 °F 61.0 °F 50% 30.01 in 10.0 mi Variable 3.5 mph - N/A   Clear
11:54 AM 84.0 °F 84.0 °F 60.1 °F 44% 30.01 in 10.0 mi Variable 4.6 mph - N/A   Scattered Clouds
12:54 PM 84.0 °F 83.8 °F 59.0 °F 43% 30.01 in 10.0 mi SW 4.6 mph - N/A   Clear
1:54 PM 87.1 °F 86.1 °F 57.9 °F 37% 29.99 in 10.0 mi Variable 4.6 mph - N/A   Partly Cloudy
2:54 PM 86.0 °F 85.0 °F 57.9 °F 38% 29.97 in 10.0 mi ENE 4.6 mph - N/A   Clear
3:54 PM 86.0 °F 84.9 °F 57.0 °F 37% 29.95 in 10.0 mi Calm Calm - N/A   Clear
4:54 PM 86.0 °F 84.7 °F 55.9 °F 36% 29.95 in 10.0 mi Variable 3.5 mph - N/A   Clear
5:54 PM 84.9 °F 83.6 °F 55.0 °F 36% 29.94 in 10.0 mi ESE 4.6 mph - N/A   Clear
6:54 PM 82.9 °F 82.1 °F 55.9 °F 39% 29.94 in 10.0 mi East 3.5 mph - N/A   Clear
7:54 PM 78.1 °F - 57.9 °F 50% 29.95 in 10.0 mi Calm Calm - N/A   Clear
8:54 PM 71.6 °F - 59.0 °F 64% 29.98 in 10.0 mi Calm Calm - N/A   Clear
9:54 PM 71.1 °F - 59.0 °F 66% 29.98 in 10.0 mi Calm Calm - N/A   Clear
10:54 PM 70.0 °F - 61.0 °F 73% 29.98 in 10.0 mi Calm Calm - N/A   Clear
11:54 PM 68.0 °F - 61.0 °F 78% 29.98 in 10.0 mi NE 3.5 mph - N/A   Clear